Погода в Согре

Россия / Архангельская область     62°40′31″N   46°11′38″E
темп.,
°C
ветер,
м/с
пор.,
м/с
влажн.,
%
обл.,
%
осадки,
мм/ч
давл.,
гПа
погр.,
м
3 августа, вт
вт300:00+14ююв2295100 0.0 100817
03:00+13юв269624 0.0 1007100
06:00+17юв411775 0.0 1005348
09:00+22юв6136499 0.2 1002945
12:00+26ю6115594 0.2 10011416
15:00+25ююз61165100 0.6 10011471
18:00+21зюз511610 0.3 10021358
21:00+15ююз38840 0.3 1005272
4 августа, ср
ср400:00+13ююз299419 0.0 1005174
03:00+12ю310954 0.0 1006255
06:00+15ююз397840 0.0 1007354
09:00+20юз59530 0.0 10071438
12:00+23юз584123 0.0 10072223
15:00+22зюз684320 0.0 10091958
18:00+19зюз4850100 0.0 10101484
21:00+12зюз2272100 0.0 101128
5 августа, чт
чт500:00+11зюз297497 0.0 1012178
03:00+9зсз288472 0.0 1015208
06:00+10сз487420 0.0 1016635
09:00+13сз5755100 0.0 10171386
12:00+16сз464678 0.0 10171785
15:00+16ссз465126 0.0 10181226
18:00+15с355645 0.0 1018773
21:00+12ссв2468100 0.0 1019149
6 августа, пт
пт600:00+11с257992 0.0 1020239
03:00+9ссз129085 0.0 102134
06:00+11с247475 0.0 1021264
09:00+15ссв234786 0.0 10211474
12:00+15с3344100 0.0 10211731
15:00+17зсз233760 0.0 10202036
18:00+14ссв2555100 0.0 1020321
21:00+12ссз116398 0.0 102011
7 августа, сб
сб700:00+11ссз117233 0.0 102017
03:00+8сз11875 0.0 102110
06:00+11зсз126952 0.0 1021144
09:00+17сз23505 0.0 10211158
12:00+20сз343972 0.0 10202277
15:00+20ссз343595 0.0 10192158
18:00+19с254482 0.0 1019419
21:00+12ссв226396 0.0 102024